Location: Namasale
(1.5000°N, 32.6167°E)
Time: 08:32:45
(UTC+00:00)

Vanguard 1 Rocket - Pass Details

Date: 23 April 2021
Orbit: 652 x 4225 km, 34.3° (Epoch: 15 May)

Event Time Altitude Azimuth Distance (km) Brightness Sun altitude
Rises 21:19:03 0° 260° (W) 5,201 - -74.0°
Reaches altitude 10° 21:22:56 10° 247° (WSW) 4,695 - -74.4°
Maximum altitude 21:33:59 25° 196° (SSW) 4,740 - -75.3°
Drops below altitude 10° 21:50:46 10° 148° (SSE) 7,114 - -75.6°
Exits shadow 21:54:21 - 143° (SE) 7,680 11.9 -75.6°
Sets 21:59:12 0° 136° (SE) 8,421 12.2 -75.4°
